Weather History for KRDR - December, 2012

Change the Weather History Date:

Sunday, December 23, 2012

  Actual Average Record
Temperature  
Mean Temperature 0 °F -  
Max Temperature 3 °F 18 °F 37 °F (1997)
Min Temperature -4 °F 3 °F -19 °F (2013)
Degree Days  
Heating Degree Days 66    
Moisture  
Dew Point -6 °F    
Average Humidity 77    
Maximum Humidity 85    
Minimum Humidity 71    
Precipitation  
Precipitation 0.00 in - - ()
Sea Level Pressure  
Sea Level Pressure 30.25 in    
Wind  
Wind Speed 10 mph (NNE)    
Max Wind Speed 15 mph    
Max Gust Speed -    
Visibility 9 miles    
Events Snow    
Averages and records for this station are not official NWS values.
T = Trace of Precipitation, MM = Missing Value Source: NWS Daily Summary

Daily Weather History Graph

Daily Weather History Graph

Search for Another Location

Airport or City:

Trip Planner

Search our weather history database for the weather conditions in past years. The results will help you decide how hot, cold, wet, or windy it might be!

Date:

Astronomy

Dec. 23, 2012 Rise Set
Actual Time 8:17 AM CST 4:40 PM CST
Civil Twilight 7:41 AM CST 5:16 PM CST
Nautical Twilight 7:01 AM CST 5:56 PM CST
Astronomical Twilight 6:23 AM CST 6:34 PM CST
Moon 1:40 PM CST (12/23) 3:51 AM CST (12/23)
Length of Visible Light 9h 35m
Length of Day
8h 22m
Waxing Gibbous, 82% of the Moon is Illuminated
Dec 23
Waxing Gibbous
Dec 28
Full
Jan 4
Last Quarter
Jan 11
New
Jan 18
First Quarter

Hourly Weather History & Observations

Time (CST) Temp. Windchill Dew Point Humidity Pressure Visibility Wind Dir Wind Speed Gust Speed Precip Events Conditions
12:55 AM 0.1 °F -15.1 °F -4.4 °F 81% 30.27 in 9.0 mi North 9.2 mph - N/A   Overcast
1:28 AM -0.4 °F -14.7 °F -4.0 °F 85% 30.27 in 9.0 mi North 8.1 mph - N/A   Overcast
1:38 AM -0.4 °F -13.4 °F -5.8 °F 78% 30.27 in 6.0 mi North 6.9 mph - N/A   Haze
1:43 AM -0.4 °F -14.7 °F -5.8 °F 78% 30.27 in 6.0 mi North 8.1 mph - N/A   Haze
1:55 AM -0.8 °F -13.9 °F -5.3 °F 81% 30.27 in 10.0 mi North 6.9 mph - N/A   Overcast
2:01 AM -0.4 °F -15.7 °F -5.8 °F 78% 30.27 in 10.0 mi North 9.2 mph - N/A   Overcast
2:03 AM -0.4 °F -14.7 °F -5.8 °F 78% 30.27 in 10.0 mi North 8.1 mph - N/A   Overcast
2:13 AM -0.4 °F -14.7 °F -5.8 °F 78% 30.26 in 10.0 mi NNE 8.1 mph - N/A   Overcast
2:37 AM -0.4 °F -14.7 °F -5.8 °F 78% 30.27 in 10.0 mi NNE 8.1 mph - N/A   Overcast
2:55 AM -1.3 °F -16.8 °F -6.0 °F 81% 30.27 in 10.0 mi NNE 9.2 mph - N/A   Mostly Cloudy
2:56 AM -0.4 °F -15.7 °F -5.8 °F 78% 30.26 in 10.0 mi NNE 9.2 mph - N/A   Mostly Cloudy
3:07 AM -0.4 °F -16.7 °F -5.8 °F 78% 30.26 in 10.0 mi NNE 10.4 mph - N/A   Scattered Clouds
3:12 AM -2.2 °F -18.0 °F -5.8 °F 85% 30.26 in 10.0 mi NNE 9.2 mph - N/A   Mostly Cloudy
3:18 AM -2.2 °F -16.8 °F -5.8 °F 85% 30.27 in 10.0 mi North 8.1 mph - N/A   Mostly Cloudy
3:44 AM -2.2 °F -18.9 °F -7.6 °F 78% 30.26 in 10.0 mi NNE 10.4 mph - N/A   Overcast
3:55 AM -1.7 °F -19.2 °F -6.5 °F 80% 30.26 in 10.0 mi NNE 11.5 mph - N/A   Mostly Cloudy
4:05 AM -2.2 °F -19.9 °F -5.8 °F 85% 30.26 in 10.0 mi NNE 11.5 mph - N/A   Scattered Clouds
4:55 AM -2.2 °F -18.0 °F -7.2 °F 79% 30.27 in 10.0 mi NNE 9.2 mph - N/A   Scattered Clouds
5:48 AM -4.0 °F -19.0 °F -7.6 °F 85% 30.27 in 10.0 mi North 8.1 mph - N/A   Partly Cloudy
5:55 AM -3.3 °F -19.3 °F -8.3 °F 79% 30.27 in 10.0 mi North 9.2 mph - N/A   Partly Cloudy
6:55 AM -4.0 °F -17.8 °F -8.9 °F 80% 30.27 in 10.0 mi NNE 6.9 mph - N/A   Clear
7:55 AM -4.2 °F -21.4 °F -9.0 °F 80% 30.26 in 10.0 mi North 10.4 mph - N/A   Clear
8:19 AM -4.0 °F -21.2 °F -9.4 °F 78% 30.26 in 10.0 mi North 10.4 mph - N/A   Partly Cloudy
8:37 AM -4.0 °F -23.0 °F -9.4 °F 78% 30.27 in 10.0 mi NNE 12.7 mph - N/A   Partly Cloudy
8:55 AM -4.5 °F -22.8 °F -9.6 °F 79% 30.26 in 10.0 mi NNE 11.5 mph - N/A   Scattered Clouds
9:01 AM -4.0 °F -20.2 °F -9.4 °F 78% 30.27 in 10.0 mi NNE 9.2 mph - N/A   Mostly Cloudy
9:17 AM -4.0 °F -21.2 °F -9.4 °F 78% 30.26 in 10.0 mi NNE 10.4 mph - N/A Snow Light Snow
9:26 AM -4.0 °F -22.1 °F -9.4 °F 78% 30.26 in 10.0 mi NNE 11.5 mph - N/A   Overcast
9:28 AM -4.0 °F -22.1 °F -9.4 °F 78% 30.26 in 10.0 mi North 11.5 mph - N/A   Overcast
9:40 AM -4.0 °F -20.2 °F -9.4 °F 78% 30.27 in 8.0 mi NNE 9.2 mph - N/A Snow Light Snow
9:53 AM -4.0 °F -23.0 °F -7.6 °F 85% 30.26 in 10.0 mi NNE 12.7 mph - N/A   Mostly Cloudy
9:55 AM -3.8 °F -22.7 °F -8.5 °F 80% 30.26 in 10.0 mi NNE 12.7 mph - 0.00 in   Mostly Cloudy
9:58 AM -4.0 °F -21.2 °F -7.6 °F 85% 30.27 in 10.0 mi North 10.4 mph - N/A   Mostly Cloudy
10:02 AM -4.0 °F -22.1 °F -7.6 °F 85% 30.27 in 10.0 mi North 11.5 mph - N/A   Mostly Cloudy
10:35 AM -2.2 °F -18.9 °F -7.6 °F 78% 30.28 in 10.0 mi NNE 10.4 mph - N/A   Overcast
10:40 AM -2.2 °F -18.0 °F -7.6 °F 78% 30.28 in 9.0 mi North 9.2 mph - N/A Snow Light Snow
10:54 AM -2.2 °F -18.9 °F -7.6 °F 78% 30.27 in 9.0 mi North 10.4 mph - N/A   Overcast
10:55 AM -1.5 °F -19.0 °F -6.7 °F 78% 30.27 in 9.0 mi NNE 11.5 mph - 0.00 in Snow Light Snow
10:56 AM -2.2 °F -19.9 °F -5.8 °F 85% 30.27 in 8.0 mi North 11.5 mph - N/A Snow Light Snow
10:57 AM -2.2 °F -18.9 °F -5.8 °F 85% 30.27 in 8.0 mi NNE 10.4 mph - N/A Snow Light Snow
11:16 AM -0.4 °F -15.7 °F -5.8 °F 78% 30.27 in 7.0 mi NNE 9.2 mph - N/A Snow Light Snow
11:23 AM -0.4 °F -16.7 °F -5.8 °F 78% 30.27 in 9.0 mi NNE 10.4 mph - N/A   Overcast
11:25 AM -0.4 °F -16.7 °F -5.8 °F 78% 30.27 in 10.0 mi North 10.4 mph - N/A   Overcast
11:31 AM -0.4 °F -16.7 °F -5.8 °F 78% 30.27 in 10.0 mi NNE 10.4 mph - N/A   Overcast
11:34 AM -0.4 °F -15.7 °F -5.8 °F 78% 30.26 in 10.0 mi NNE 9.2 mph - N/A   Overcast
11:36 AM -0.4 °F -17.6 °F -5.8 °F 78% 30.26 in 10.0 mi NNE 11.5 mph - N/A   Overcast
11:39 AM -0.4 °F -17.6 °F -5.8 °F 78% 30.26 in 10.0 mi NNE 11.5 mph - N/A   Overcast
11:43 AM -0.4 °F -17.6 °F -5.8 °F 78% 30.26 in 10.0 mi NNE 11.5 mph - N/A   Overcast
11:45 AM -0.4 °F -17.6 °F -5.8 °F 78% 30.26 in 10.0 mi North 11.5 mph - N/A   Overcast
11:55 AM -0.2 °F -16.5 °F -6.0 °F 77% 30.26 in 10.0 mi NNE 10.4 mph - 0.00 in   Overcast
11:58 AM -0.4 °F -18.4 °F -5.8 °F 78% 30.25 in 10.0 mi NNE 12.7 mph - N/A   Overcast
12:28 PM -0.4 °F -18.4 °F -5.8 °F 78% 30.25 in 7.0 mi NNE 12.7 mph - N/A Snow Light Snow
12:37 PM 1.4 °F -16.9 °F -5.8 °F 72% 30.25 in 10.0 mi NE 13.8 mph - N/A   Overcast
12:55 PM 0.7 °F -17.0 °F -5.6 °F 75% 30.25 in 10.0 mi NNE 12.7 mph - 0.00 in   Overcast
1:05 PM 1.4 °F -16.9 °F -5.8 °F 72% 30.24 in 9.0 mi NNE 13.8 mph - N/A   Overcast
1:13 PM 1.4 °F -16.1 °F -5.8 °F 72% 30.24 in 10.0 mi NNE 12.7 mph - N/A   Overcast
1:23 PM 1.4 °F -16.1 °F -4.0 °F 78% 30.23 in 9.0 mi NNE 12.7 mph - N/A   Overcast
1:38 PM 1.4 °F -16.1 °F -5.8 °F 72% 30.24 in 9.0 mi North 12.7 mph - N/A   Overcast
1:40 PM 1.4 °F -16.1 °F -5.8 °F 72% 30.24 in 9.0 mi NNE 12.7 mph - N/A   Overcast
1:42 PM 1.4 °F -16.1 °F -5.8 °F 72% 30.24 in 9.0 mi NNE 12.7 mph - N/A   Overcast
1:55 PM 1.2 °F -17.1 °F -5.4 °F 74% 30.24 in 10.0 mi NNE 13.8 mph - N/A   Overcast
2:10 PM 1.4 °F -14.5 °F -5.8 °F 72% 30.23 in 10.0 mi NNE 10.4 mph - N/A   Overcast
2:43 PM 1.4 °F -15.3 °F -4.0 °F 78% 30.23 in 10.0 mi NNE 11.5 mph - N/A   Overcast
2:55 PM 1.9 °F -13.8 °F -4.5 °F 74% 30.24 in 10.0 mi NNE 10.4 mph - N/A   Overcast
2:59 PM 1.4 °F -15.3 °F -4.0 °F 78% 30.24 in 10.0 mi NNE 11.5 mph - N/A   Overcast
3:04 PM 1.4 °F -16.1 °F -4.0 °F 78% 30.24 in 10.0 mi NNE 12.7 mph - N/A   Overcast
3:55 PM 2.5 °F -14.8 °F -4.4 °F 73% 30.24 in 10.0 mi NNE 12.7 mph - N/A   Overcast
4:05 PM 3.2 °F -13.9 °F -4.0 °F 72% 30.24 in 10.0 mi NNE 12.7 mph - N/A   Overcast
4:23 PM 1.4 °F -16.1 °F -4.0 °F 78% 30.24 in 10.0 mi NNE 12.7 mph - N/A   Overcast
4:43 PM 3.2 °F -13.9 °F -4.0 °F 72% 30.24 in 10.0 mi NNE 12.7 mph - N/A   Overcast
4:46 PM 1.4 °F -16.9 °F -4.0 °F 78% 30.24 in 10.0 mi NNE 13.8 mph - N/A   Overcast
4:55 PM 2.1 °F -15.2 °F -4.4 °F 74% 30.24 in 10.0 mi NNE 12.7 mph - N/A   Overcast
5:07 PM 1.4 °F -14.5 °F -4.0 °F 78% 30.25 in 10.0 mi NNE 10.4 mph - N/A   Overcast
5:09 PM 1.4 °F -14.5 °F -4.0 °F 78% 30.25 in 10.0 mi North 10.4 mph - N/A   Overcast
5:20 PM 1.4 °F -16.1 °F -4.0 °F 78% 30.25 in 10.0 mi NNE 12.7 mph - N/A   Overcast
5:26 PM 1.4 °F -16.1 °F -4.0 °F 78% 30.25 in 10.0 mi NNE 12.7 mph - N/A   Mostly Cloudy
5:53 PM 1.4 °F -15.3 °F -4.0 °F 78% 30.24 in 9.0 mi NNE 11.5 mph - N/A Snow Light Snow
5:55 PM 1.9 °F -14.7 °F -4.4 °F 75% 30.24 in 9.0 mi NNE 11.5 mph - N/A   Mostly Cloudy
5:58 PM 1.4 °F -16.1 °F -4.0 °F 78% 30.24 in 9.0 mi NNE 12.7 mph - N/A Snow Light Snow
6:01 PM 1.4 °F -16.1 °F -4.0 °F 78% 30.24 in 10.0 mi NNE 12.7 mph - N/A Snow Light Snow
6:03 PM 1.4 °F -14.5 °F -4.0 °F 78% 30.24 in 10.0 mi NNE 10.4 mph - N/A   Overcast
6:08 PM 1.4 °F -16.1 °F -4.0 °F 78% 30.23 in 10.0 mi NNE 12.7 mph - N/A   Overcast
6:13 PM 1.4 °F -16.1 °F -5.8 °F 72% 30.24 in 10.0 mi NNE 12.7 mph - N/A   Overcast
6:47 PM 1.4 °F -16.9 °F -5.8 °F 72% 30.22 in 10.0 mi NNE 13.8 mph - N/A Snow Light Snow
6:54 PM 1.4 °F -15.3 °F -5.8 °F 72% 30.22 in 9.0 mi NNE 11.5 mph - N/A Snow Light Snow
6:55 PM 0.7 °F -17.0 °F -5.4 °F 75% 30.22 in 10.0 mi NNE 12.7 mph - 0.00 in Snow Light Snow
7:01 PM -0.4 °F -18.4 °F -5.8 °F 78% 30.23 in 6.0 mi North 12.7 mph - N/A Snow Light Snow
7:09 PM -0.4 °F -15.7 °F -5.8 °F 78% 30.23 in 4.0 mi North 9.2 mph - N/A Snow Light Snow
7:22 PM -0.4 °F -16.7 °F -5.8 °F 78% 30.23 in 3.0 mi North 10.4 mph - N/A Snow Light Snow
7:31 PM -0.4 °F -16.7 °F -5.8 °F 78% 30.23 in 4.0 mi NNE 10.4 mph - N/A Snow Light Snow
7:41 PM -0.4 °F -16.7 °F -5.8 °F 78% 30.22 in 5.0 mi NNE 10.4 mph - N/A Snow Light Snow
7:43 PM -0.4 °F -16.7 °F -5.8 °F 78% 30.22 in 4.0 mi NNE 10.4 mph - N/A Snow Light Snow
7:54 PM -0.4 °F -16.7 °F -5.8 °F 78% 30.22 in 5.0 mi North 10.4 mph - N/A Snow Light Snow
7:55 PM -0.4 °F -15.7 °F -6.0 °F 77% 30.22 in 4.0 mi North 9.2 mph - 0.00 in Snow Light Snow
8:12 PM -0.4 °F -15.7 °F -7.6 °F 72% 30.22 in 4.0 mi NNE 9.2 mph - N/A Snow Light Snow
8:45 PM -0.4 °F -16.7 °F -7.6 °F 72% 30.22 in 4.0 mi North 10.4 mph - N/A Snow Light Snow
8:55 PM -1.3 °F -17.8 °F -7.2 °F 76% 30.22 in 5.0 mi North 10.4 mph - 0.00 in Snow Light Snow
8:59 PM -0.4 °F -18.4 °F -7.6 °F 72% 30.22 in 6.0 mi NNE 12.7 mph - N/A Snow Light Snow
9:04 PM -0.4 °F -18.4 °F -7.6 °F 72% 30.22 in 6.0 mi NNE 12.7 mph - N/A Snow Light Snow
9:25 PM -2.2 °F -21.5 °F -7.6 °F 78% 30.22 in 6.0 mi North 13.8 mph - N/A Snow Light Snow
9:34 PM -2.2 °F -21.5 °F -7.6 °F 78% 30.22 in 10.0 mi North 13.8 mph - N/A   Overcast
9:45 PM -2.2 °F -18.9 °F -7.6 °F 78% 30.22 in 10.0 mi North 10.4 mph - N/A   Overcast
9:55 PM -2.2 °F -20.7 °F -8.3 °F 75% 30.22 in 10.0 mi North 12.7 mph - 0.00 in   Overcast
9:58 PM -2.2 °F -20.7 °F -7.6 °F 78% 30.22 in 10.0 mi NNE 12.7 mph - N/A   Overcast
10:24 PM -2.2 °F -19.9 °F -9.4 °F 71% 30.22 in 9.0 mi North 11.5 mph - N/A Snow Light Snow
10:35 PM -2.2 °F -19.9 °F -9.4 °F 71% 30.22 in 9.0 mi North 11.5 mph - N/A   Overcast
10:38 PM -2.2 °F -21.5 °F -9.4 °F 71% 30.22 in 10.0 mi North 13.8 mph - N/A   Overcast
10:44 PM -2.2 °F -20.7 °F -9.4 °F 71% 30.22 in 10.0 mi North 12.7 mph - N/A   Overcast
10:55 PM -2.4 °F -20.1 °F -8.7 °F 75% 30.23 in 10.0 mi North 11.5 mph - 0.00 in   Overcast
11:00 PM -2.2 °F -21.5 °F -9.4 °F 71% 30.23 in 10.0 mi North 13.8 mph - N/A   Overcast
11:03 PM -2.2 °F -19.9 °F -9.4 °F 71% 30.23 in 10.0 mi North 11.5 mph - N/A   Overcast
11:39 PM -2.2 °F -20.7 °F -9.4 °F 71% 30.24 in 10.0 mi North 12.7 mph - N/A   Overcast
11:55 PM -2.2 °F -22.2 °F -8.5 °F 75% 30.24 in 10.0 mi NNE 15.0 mph - N/A   Overcast